Weather in Irpin

Ukraine / Kyiv Region     50°31′11″N   30°14′40″E
temp.,
°C
wind,
m/s
gust,
m/s
humid.,
%
clouds,
%
prec.,
mm/h
press.,
hPa
HPBL,
m
15 may, sat
sat1500:00+11ssw369298 0.0 1007129
03:00+11ssw369425 0.0 1007153
06:00+10ssw259498 0.0 1007108
09:00+14sw358673 0.0 1009399
12:00+18wsw456696 0.8 10101282
15:00+17sw46668 2.1 1009965
18:00+18sw46645 0.9 1010968
21:00+13sw348567 0.9 101188
16 may, sun
sun1600:00+11sw35924 0.0 1012105
03:00+10sw22945 0.0 101250
06:00+10ssw23933 0.0 101358
09:00+16s22671 0.0 1013406
12:00+21sse235131 0.0 10121130
15:00+22sse4448100 0.1 10111909
18:00+21sse4656100 0.1 10101320
21:00+17ese2472100 0.2 101067
17 may, mon
mon1700:00+15ese377987 0.0 1009135
03:00+15e2479100 0.0 100978
06:00+14ese3984100 0.2 1007285
09:00+14ene2593100 1.3 1007146
12:00+17nnw3580100 0.3 1006426
15:00+20nnw5563100 0.4 10051130
18:00+16nw3682100 0.9 1004287
21:00+14n489799 6.6 1003232
18 may, tue
tue1800:00+13nnw2598100 0.8 1003233
03:00+12wnw2498100 0.9 1002144
06:00+12w2597100 1.8 1002177
09:00+15w3581100 1.9 1002432
12:00+16sw458399 1.5 1002601
15:00+14w479186 9.7 1003470
18:00+13wsw5990100 0.1 1004528
21:00+11wnw51194100 1.6 1005605
19 may, wed
wed1900:00+11wnw41095100 7.4 1006560
03:00+11wnw51193100 10.8 1006520
06:00+9w51194100 0.0 1007435
09:00+12wnw61085100 0.0 1008739
12:00+14wnw576984 0.3 10101201
15:00+16w685967 0.7 10101697
18:00+16w67624 0.1 10101311
21:00+11w410783 0.3 1012240